[[{"header":{"parameterUnit":"m.s-1","parameterCategory":2,"la1":30.2992,"la2":30.254,"lo1":-89.0895,"lo2":-89.0443,"dy":0.0025,"dx":0.0025,"nx":19,"ny":19,"refTime":"2026-05-09T21:00:00:Z","depth":"0","parameterNumber":2,"parameterNumberName":"U-component_of_CURRENTS"},"data":[0,0,0,0.0288,0.0287,0.0252,0.0252,0.0292,0.0292,0,0,0,0,0,0,0,0,0,0,0,0.0298,0.0298,0.0288,0.0287,0.0252,0.0252,0.0292,0.0292,0,0,0,0,0,0,0,0,0,0,0,0.0298,0.0298,0.0297,0.0287,0.0252,0.0252,0.0291,0.0297,0,0,0,0,0,0,0,0,0,0,0.032,0.0317,0.0298,0.0297,0.0287,0.0252,0.0252,0.0296,0.0297,0.0332,0,0.0322,0,0.0311,0.0297,0.0297,0,0,0,0.0287,0.0316,0.0308,0.0297,0.0286,0.0252,0.0268,0.0296,0.0296,0.0333,0.0322,0.0323,0.0312,0.0297,0.0298,0.0358,0.0358,0,0,0.0289,0.0294,0.0308,0.0308,0.0273,0.0269,0.0267,0.0295,0.0296,0.0322,0.0324,0.0313,0.0298,0.0298,0.0358,0.0358,0,0,0,0.0294,0.0295,0.0284,0.0307,0.0296,0.0268,0.0265,0.0294,0.0291,0.0324,0.0313,0.0298,0.0299,0.0358,0.0358,0.0339,0,0,0,0.0296,0.0298,0.0285,0.0288,0.0295,0.0283,0.0264,0.0288,0.0291,0.0313,0.0298,0.03,0.0357,0.0358,0.0339,0.0338,0,0,0,0.03,0.0299,0.0293,0.0289,0.0273,0.0282,0.0279,0.0288,0.0285,0.0297,0.03,0.0357,0.0358,0.0339,0.0338,0.0369,0,0,0,0.0309,0.0279,0.0293,0.0259,0.0274,0.0251,0.0279,0.0269,0.0275,0.0299,0.0357,0.0358,0.0339,0.0338,0.0368,0.0402,0.0406,0,0,0.0271,0.0274,0.0253,0.0265,0.0221,0.0256,0.0251,0.0273,0.0298,0.0354,0.0354,0.0339,0.0338,0.0369,0.0421,0.0425,0,0,0,0.0241,0.0222,0.021,0.0193,0.0194,0.0221,0.0245,0.0272,0.0312,0.0303,0.0351,0.0352,0.0371,0.0391,0.0394,0.0454,0.0359,0.0359,0.0359,0.0198,0.0191,0.0153,0.015,0.0158,0.0204,0.0234,0.0288,0.0305,0.0325,0.0345,0.0367,0.0387,0.039,0.0451,0.0352,0.0351,0.0351,0.0351,0.0136,0.012,0.0125,0.0085,0.0134,0.0156,0.0244,0.0275,0.0346,0.0345,0.0365,0.038,0.0393,0.0457,0.035,0.0351,0.0351,0.0351,0.0351,0.0125,0.0114,0.0088,0.0057,0.0081,0.0137,0.0208,0.0274,0.033,0.0356,0.0404,0.0405,0.0456,0.0371,0.0371,0.0371,0.0371,0.0371,0.0371,0.0129,0.01,0.0051,0.0025,0.0026,0.0075,0.019,0.0258,0.0357,0.0399,0.04,0.0478,0.0374,0.0368,0.0373,0.0373,0.0373,0.0373,0.0372,0.0094,0.0086,0.0022,-0.0003,-0.0007,0.0047,0.0151,0.0308,0.0382,0.0437,0.0537,0.0435,0.0452,0.045,0.0447,0.0473,0.0473,0.0473,0.0473,0.0084,0.0066,-0.0012,-0.0046,-0.0037,0.004,0.0171,0.0327,0.0509,0.0601,0.0611,0.0611,0.0605,0.0631,0.0625,0.0625,0.0696,0.0696,0.0696,0.0043,0.0036,-0.0024,-0.0062,-0.0054,0.0044,0.0172,0.035,0.0615,0.071,0.069,0.068,0.0683,0.0668,0.0709,0.0696,0.0695,0,0]},{"header":{"parameterUnit":"m.s-1","parameterCategory":2,"la1":30.2992,"la2":30.254,"lo1":-89.0895,"lo2":-89.0443,"dy":0.0025,"dx":0.0025,"nx":19,"ny":19,"refTime":"2026-05-09T21:00:00:Z","depth":"0","parameterNumber":3,"parameterNumberName":"V-component_of_CURRENTS"},"data":[0,0,0,-0.1309,-0.1308,-0.1288,-0.1288,-0.1284,-0.1284,0,0,0,0,0,0,0,0,0,0,0,-0.1312,-0.1311,-0.1309,-0.1308,-0.1288,-0.1287,-0.1284,-0.1284,0,0,0,0,0,0,0,0,0,0,0,-0.1312,-0.1311,-0.1311,-0.1308,-0.1288,-0.1287,-0.1284,-0.1294,0,0,0,0,0,0,0,0,0,0,-0.1311,-0.1305,-0.1311,-0.1311,-0.1308,-0.1288,-0.1287,-0.1294,-0.1293,-0.1299,0,-0.1291,0,-0.1289,-0.1284,-0.1284,0,0,0,-0.1309,-0.1305,-0.1306,-0.1311,-0.1308,-0.1288,-0.1297,-0.1293,-0.1293,-0.1298,-0.1291,-0.1291,-0.1289,-0.1284,-0.1284,-0.1269,-0.1269,0,0,-0.131,-0.1304,-0.1306,-0.1305,-0.1296,-0.1298,-0.1296,-0.1293,-0.1286,-0.1291,-0.1291,-0.1289,-0.1284,-0.1284,-0.127,-0.1269,0,0,0,-0.1313,-0.1304,-0.1305,-0.1305,-0.1301,-0.1297,-0.1296,-0.1286,-0.1287,-0.129,-0.1289,-0.1284,-0.1284,-0.127,-0.127,-0.1225,0,0,0,-0.1313,-0.1306,-0.1305,-0.1301,-0.1301,-0.1289,-0.1289,-0.1287,-0.1287,-0.1289,-0.1284,-0.1284,-0.127,-0.127,-0.1227,-0.1181,0,0,0,-0.1314,-0.1306,-0.1303,-0.13,-0.1292,-0.1289,-0.1289,-0.1287,-0.1286,-0.1284,-0.1284,-0.127,-0.127,-0.1228,-0.1185,-0.1167,0,0,0,-0.131,-0.1272,-0.1303,-0.1258,-0.1292,-0.1259,-0.1289,-0.1266,-0.1259,-0.1284,-0.127,-0.127,-0.1228,-0.1187,-0.1169,-0.1116,-0.1102,0,0,-0.1256,-0.1266,-0.1239,-0.1265,-0.1219,-0.1262,-0.1224,-0.1232,-0.1259,-0.1274,-0.1273,-0.1226,-0.1185,-0.1167,-0.1091,-0.1078,0,0,0,-0.1217,-0.1196,-0.1187,-0.1169,-0.117,-0.1175,-0.1192,-0.121,-0.1224,-0.1253,-0.123,-0.1205,-0.1195,-0.1168,-0.1158,-0.1137,-0.1268,-0.1268,-0.1268,-0.1119,-0.1127,-0.1083,-0.1094,-0.1086,-0.1112,-0.1117,-0.1149,-0.1183,-0.1189,-0.1172,-0.1129,-0.11,-0.1091,-0.1072,-0.1191,-0.1191,-0.119,-0.119,-0.1027,-0.0989,-0.1019,-0.0983,-0.1012,-0.0999,-0.1046,-0.1079,-0.1094,-0.1134,-0.1128,-0.1126,-0.1077,-0.106,-0.1188,-0.1188,-0.1188,-0.1189,-0.1189,-0.0944,-0.0929,-0.0931,-0.0909,-0.0899,-0.0935,-0.0926,-0.0979,-0.1033,-0.1027,-0.1016,-0.1016,-0.0998,-0.1034,-0.1034,-0.1034,-0.1033,-0.1033,-0.1033,-0.0855,-0.0858,-0.0828,-0.0827,-0.082,-0.0819,-0.0855,-0.0872,-0.0907,-0.0942,-0.0942,-0.0971,-0.1081,-0.1083,-0.1029,-0.1029,-0.103,-0.103,-0.1031,-0.0722,-0.0756,-0.0713,-0.0704,-0.0701,-0.0686,-0.0729,-0.075,-0.0782,-0.0788,-0.0828,-0.091,-0.0916,-0.0925,-0.0923,-0.083,-0.083,-0.083,-0.083,-0.0641,-0.0652,-0.061,-0.0593,-0.0588,-0.0617,-0.0575,-0.0606,-0.068,-0.0699,-0.0735,-0.076,-0.0769,-0.0769,-0.0781,-0.0779,-0.0651,-0.0651,-0.0651,-0.0556,-0.0568,-0.0517,-0.0531,-0.0537,-0.0542,-0.0486,-0.0457,-0.057,-0.0644,-0.0714,-0.0722,-0.0764,-0.078,-0.0789,-0.0808,-0.0808,0,0]}],[{"header":{"parameterUnit":"m.s-1","parameterCategory":2,"la1":30.2992,"la2":30.254,"lo1":-89.0895,"lo2":-89.0443,"dy":0.0025,"dx":0.0025,"nx":19,"ny":19,"refTime":"2026-05-09T21:00:00:Z","depth":"2","parameterNumber":2,"parameterNumberName":"U-component_of_CURRENTS"},"data":[0,0,0,0.1212,0.1211,0.1174,0.1174,0.1235,0.1236,0,0,0,0,0,0,0,0,0,0,0,0.1228,0.1228,0.1212,0.1211,0.1174,0.1174,0.1235,0.1236,0,0,0,0,0,0,0,0,0,0,0,0.1228,0.1228,0.1228,0.1211,0.1174,0.1174,0.1234,0.1235,0,0,0,0,0,0,0,0,0,0,0.1257,0.1263,0.1228,0.1228,0.1211,0.1174,0.1174,0.1234,0.1235,0.1283,0,0.1278,0,0.1262,0.1242,0.1243,0,0,0,0.1208,0.1261,0.1247,0.1228,0.121,0.1174,0.119,0.1233,0.1235,0.1285,0.1279,0.128,0.1263,0.1243,0.1244,0.1366,0.1367,0,0,0.121,0.1228,0.1245,0.1247,0.1205,0.1191,0.1189,0.1233,0.1243,0.1279,0.1281,0.1264,0.1244,0.1245,0.1366,0.1367,0,0,0,0.1218,0.123,0.1212,0.1246,0.1232,0.119,0.1188,0.1241,0.1233,0.1282,0.1264,0.1244,0.1246,0.1365,0.1366,0.1375,0,0,0,0.1219,0.1234,0.1213,0.1224,0.1231,0.1223,0.1195,0.123,0.1234,0.1264,0.1244,0.1247,0.1365,0.1366,0.1373,0.1367,0,0,0,0.1229,0.1236,0.1231,0.1225,0.1209,0.1221,0.1215,0.1229,0.1224,0.1243,0.1247,0.1364,0.1366,0.1371,0.1365,0.141,0,0,0,0.1249,0.1241,0.1231,0.1218,0.1209,0.1196,0.1214,0.1213,0.1226,0.1245,0.1365,0.1366,0.1371,0.1364,0.1409,0.1347,0.135,0,0,0.1247,0.1242,0.123,0.1219,0.1195,0.1201,0.122,0.1244,0.1271,0.1356,0.1358,0.1373,0.1365,0.141,0.1428,0.1428,0,0,0,0.1233,0.1225,0.1216,0.12,0.1192,0.1215,0.1233,0.1272,0.134,0.1286,0.14,0.1395,0.1422,0.1383,0.1384,0.1373,0.1373,0.1372,0.1372,0.1251,0.1228,0.121,0.1193,0.1201,0.1234,0.1275,0.1343,0.136,0.1405,0.1422,0.1486,0.1445,0.1444,0.145,0.145,0.145,0.145,0.145,0.1234,0.1204,0.1209,0.1182,0.121,0.1238,0.1338,0.1372,0.1477,0.1469,0.1496,0.1417,0.1445,0.1451,0.1451,0.1451,0.145,0.145,0.145,0.1221,0.12,0.1191,0.1169,0.1194,0.124,0.131,0.1392,0.1478,0.1515,0.149,0.1489,0.1483,0.1534,0.1534,0.1534,0.1535,0.1535,0.1535,0.1192,0.1183,0.1147,0.1155,0.1154,0.1193,0.1298,0.1367,0.1457,0.1498,0.1497,0.1515,0.1512,0.149,0.1538,0.1537,0.1537,0.1537,0.1536,0.1083,0.1129,0.1058,0.1053,0.109,0.1157,0.1248,0.1357,0.1441,0.1482,0.1502,0.1502,0.1496,0.1495,0.1473,0.1514,0.1514,0.1514,0.1514,0.1024,0.1041,0.0933,0.0924,0.0997,0.1129,0.1182,0.1162,0.126,0.1198,0.1211,0.1147,0.1156,0.1127,0.1134,0.1103,0.1048,0.1047,0.1045,0.0919,0.0913,0.0793,0.0829,0.0946,0.1103,0.1108,0.0938,0.0831,0.1018,0.1035,0.1501,0.1441,0.1443,0.1427,0.1427,0.1388,0,0]},{"header":{"parameterUnit":"m.s-1","parameterCategory":2,"la1":30.2992,"la2":30.254,"lo1":-89.0895,"lo2":-89.0443,"dy":0.0025,"dx":0.0025,"nx":19,"ny":19,"refTime":"2026-05-09T21:00:00:Z","depth":"2","parameterNumber":3,"parameterNumberName":"V-component_of_CURRENTS"},"data":[0,0,0,0.009,0.0088,0.0012,0.0012,0.0022,0.0023,0,0,0,0,0,0,0,0,0,0,0,0.0109,0.0109,0.009,0.0088,0.0012,0.0012,0.0022,0.0023,0,0,0,0,0,0,0,0,0,0,0,0.011,0.0109,0.0108,0.0088,0.0012,0.0012,0.0022,0.0054,0,0,0,0,0,0,0,0,0,0,0.0115,0.0108,0.0109,0.0108,0.0087,0.0012,0.0012,0.0054,0.0052,0.0086,0,0.006,0,0.0045,0.0025,0.0025,0,0,0,0.0092,0.011,0.0097,0.0108,0.0087,0.0012,0.0048,0.0052,0.005,0.0084,0.006,0.006,0.0045,0.0026,0.0026,0.0092,0.0092,0,0,0.0097,0.0094,0.0098,0.0095,0.0051,0.005,0.0045,0.0049,0.0038,0.006,0.0059,0.0045,0.0026,0.0026,0.0091,0.0092,0,0,0,0.0106,0.0097,0.0082,0.0095,0.0074,0.0048,0.0042,0.0038,0.0034,0.0059,0.0046,0.0026,0.0027,0.0091,0.0092,0.0096,0,0,0,0.0109,0.0102,0.0083,0.0081,0.0073,0.0039,0.0031,0.0033,0.0033,0.0046,0.0026,0.0027,0.0091,0.0091,0.0095,0.0106,0,0,0,0.0116,0.0103,0.0091,0.0081,0.0048,0.0038,0.0033,0.0032,0.0026,0.0025,0.0027,0.009,0.0091,0.0094,0.0104,0.0133,0,0,0,0.0123,0.0098,0.009,0.0068,0.0048,0.0053,0.0033,0.0022,0.0021,0.0026,0.0091,0.0092,0.0094,0.0103,0.0132,0.0223,0.0236,0,0,0.0103,0.0095,0.0088,0.008,0.008,0.0064,0.0088,0.0065,0.0053,0.0097,0.0097,0.0096,0.0104,0.0133,0.028,0.0291,0,0,0,0.0092,0.008,0.0082,0.0073,0.0082,0.0103,0.0087,0.0093,0.0093,0.0055,0.0115,0.012,0.0138,0.0191,0.02,0.0096,0.0096,0.0096,0.0096,0.0038,0.0061,0.0063,0.009,0.0105,0.013,0.0152,0.0162,0.0136,0.0136,0.0138,0.0183,0.024,0.0248,0.0149,0.0149,0.0149,0.0149,0.0149,0.0015,0.0021,0.0061,0.0064,0.0111,0.0132,0.0204,0.0192,0.0219,0.0181,0.0197,0.021,0.0259,0.015,0.015,0.015,0.015,0.015,0.015,-0.0023,-0.0009,-0.0013,0.002,0.0063,0.0119,0.0203,0.0221,0.022,0.0237,0.0284,0.0285,0.0184,0.0223,0.0223,0.0224,0.0224,0.0224,0.0224,-0.0063,-0.0049,-0.0059,-0.0016,0.0012,0.0083,0.0182,0.0248,0.0309,0.0313,0.0313,0.0208,0.0206,0.019,0.0227,0.0226,0.0226,0.0226,0.0225,-0.0104,-0.0103,-0.0103,-0.0088,0.0013,0.0149,0.023,0.0397,0.0434,0.0494,0.0376,0.0372,0.0384,0.0377,0.0367,0.0447,0.0447,0.0447,0.0447,-0.0132,-0.0129,-0.0128,-0.0084,0.0033,0.0188,0.0397,0.0516,0.0547,0.0494,0.0491,0.0483,0.0475,0.0489,0.048,0.0471,0.0578,0.0578,0.0578,-0.0152,-0.0142,-0.0149,-0.0098,0.005,0.0258,0.0479,0.0591,0.0544,0.0575,0.0437,0.0471,0.0452,0.0441,0.0457,0.0445,0.0427,0,0]}],[{"header":{"parameterUnit":"m.s-1","parameterCategory":2,"la1":30.2992,"la2":30.254,"lo1":-89.0895,"lo2":-89.0443,"dy":0.0025,"dx":0.0025,"nx":19,"ny":19,"refTime":"2026-05-09T21:00:00:Z","depth":"4","parameterNumber":2,"parameterNumberName":"U-component_of_CURRENTS"},"data":[0,0,0,-0.0062,-0.0061,0.0064,0.0064,0.0058,0.0057,0,0,0,0,0,0,0,0,0,0,0,-0.0085,-0.0084,-0.0063,-0.0061,0.0063,0.0064,0.0059,0.0057,0,0,0,0,0,0,0,0,0,0,0,-0.0085,-0.0084,-0.0084,-0.006,0.0063,0.0065,0.0059,0.0014,0,0,0,0,0,0,0,0,0,0,-0.0082,-0.0089,-0.0084,-0.0083,-0.006,0.0063,0.0065,0.0014,0.0017,-0.0056,0,-0.0038,0,-0.002,0.005,0.005,0,0,0,-0.0026,-0.009,-0.0072,-0.0083,-0.0059,0.0063,0.0017,0.0017,0.002,-0.0054,-0.0037,-0.0037,-0.002,0.0049,0.0049,-0.0054,-0.0055,0,0,-0.0033,-0.0051,-0.0073,-0.007,-0.0034,0.0013,0.002,0.0021,0.0024,-0.0037,-0.0037,-0.002,0.0049,0.0048,-0.0054,-0.0055,0,0,0,-0.0076,-0.0056,-0.0032,-0.007,-0.0051,0.0016,0.0025,0.0026,0.003,-0.0036,-0.002,0.0048,0.0047,-0.0054,-0.0054,0.0135,0,0,0,-0.0079,-0.0084,-0.0036,-0.0043,-0.005,0.001,0.0029,0.0032,0.0032,-0.002,0.0048,0.0046,-0.0053,-0.0054,0.0131,0.0145,0,0,0,-0.0089,-0.0085,-0.0074,-0.0045,-0.001,0.0011,0.002,0.0034,0.0038,0.005,0.0045,-0.0053,-0.0054,0.0127,0.014,0.004,0,0,0,-0.0106,-0.0072,-0.0075,-0.0011,-0.0012,0.007,0.0021,0.012,0.0152,0.0048,-0.0054,-0.0054,0.0126,0.0136,0.0039,0.0043,0,0,0,-0.007,-0.0068,-0.0022,-0.0023,0.0093,0.0056,0.0115,0.0156,0.0091,-0.0059,-0.006,0.0132,0.0139,0.004,-0.0002,0,0,0,0,-0.0014,0.0033,0.0064,0.0137,0.0165,0.018,0.0197,0.0145,0.0126,0.0093,0.0063,0.0058,-0.0009,-0.0013,-0.0058,-0.0058,-0.0058,-0.0058,-0.0058,0.0058,0.0108,0.0204,0.0264,0.0289,0.0282,0.0257,0.0165,0.0156,0.0162,0.0167,0.0147,0.0155,0.0143,0.0144,0.0145,0.0145,0.0146,0.0146,0.0181,0.0242,0.0305,0.042,0.041,0.0441,0.0305,0.0297,0.0179,0.0201,0.0129,0.0133,0.0163,0.016,0.0157,0.0155,0.0154,0.0153,0.0152,0.0249,0.0269,0.038,0.0509,0.0564,0.0536,0.0419,0.0383,0.0302,0.0286,0.0192,0.0182,0.0211,0.0281,0.028,0.028,0.028,0.0279,0.0279,0.0245,0.034,0.0452,0.0573,0.0619,0.0604,0.0503,0.0383,0.0334,0.031,0.0333,0.0187,0.0183,0.0209,0.0274,0.0275,0.0276,0.0276,0.0277,0.0286,0.0332,0.0454,0.0529,0.0569,0.0513,0.0453,0.0316,0.018,0.0124,0.0245,0.0247,0.0128,0.0122,0.0143,0.0191,0.0191,0.0191,0,0.0277,0.0319,0.0438,0.0477,0.0431,0.0412,0.026,0.0158,0.0132,0.0186,0.0095,0.0232,0.0235,0.0098,0.0094,0.0116,0,0,0,0.0291,0.0312,0.0365,0.0419,0.0368,0.0241,0.0196,0.0182,0.0214,0.0112,0.0196,0.0195,0.0151,0.026,0.0078,0.0073,0.0101,0,0]},{"header":{"parameterUnit":"m.s-1","parameterCategory":2,"la1":30.2992,"la2":30.254,"lo1":-89.0895,"lo2":-89.0443,"dy":0.0025,"dx":0.0025,"nx":19,"ny":19,"refTime":"2026-05-09T21:00:00:Z","depth":"4","parameterNumber":3,"parameterNumberName":"V-component_of_CURRENTS"},"data":[0,0,0,0.0428,0.043,0.0513,0.0514,0.0474,0.0473,0,0,0,0,0,0,0,0,0,0,0,0.0422,0.0423,0.0428,0.043,0.0513,0.0514,0.0474,0.0473,0,0,0,0,0,0,0,0,0,0,0,0.0422,0.0423,0.0424,0.043,0.0513,0.0514,0.0475,0.0452,0,0,0,0,0,0,0,0,0,0,0.0391,0.0401,0.0423,0.0424,0.043,0.0513,0.0514,0.0453,0.0453,0.0389,0,0.0414,0,0.042,0.0465,0.0465,0,0,0,0.0447,0.0401,0.0415,0.0424,0.0431,0.0513,0.048,0.0454,0.0455,0.0389,0.0414,0.0413,0.042,0.0465,0.0464,0.0338,0.0338,0,0,0.0443,0.0439,0.0415,0.0416,0.0464,0.0478,0.0483,0.0457,0.0462,0.0414,0.0412,0.0419,0.0464,0.0463,0.0339,0.0338,0,0,0,0.0418,0.0436,0.0454,0.0417,0.0431,0.048,0.0486,0.0465,0.0469,0.0412,0.0418,0.0463,0.0462,0.034,0.0339,0.0351,0,0,0,0.0416,0.042,0.0452,0.0451,0.0433,0.0467,0.0494,0.0473,0.0469,0.0419,0.0463,0.0461,0.034,0.0339,0.0352,0.0372,0,0,0,0.0417,0.0419,0.0432,0.0451,0.0476,0.0469,0.0474,0.0474,0.047,0.0465,0.0461,0.0341,0.0339,0.0353,0.0373,0.0302,0,0,0,0.0405,0.0427,0.0433,0.0471,0.0475,0.0484,0.0475,0.0492,0.0492,0.0463,0.034,0.0339,0.0353,0.0373,0.0304,0.0294,0,0,0,0.042,0.0429,0.0454,0.046,0.0487,0.0473,0.0446,0.0452,0.0441,0.0342,0.0341,0.0351,0.0373,0.0303,0.022,0,0,0,0,0.0451,0.0483,0.0488,0.052,0.0505,0.0462,0.0453,0.0416,0.0381,0.0431,0.0322,0.0335,0.029,0.0287,0.0333,0.0333,0.0333,0.0333,0.0333,0.0499,0.0513,0.0546,0.055,0.0528,0.0452,0.0402,0.0341,0.0343,0.0323,0.0323,0.0252,0.0248,0.0289,0.0289,0.0289,0.0289,0.0289,0.0289,0.0564,0.0586,0.0591,0.0646,0.0568,0.0541,0.0371,0.0346,0.024,0.0279,0.0233,0.0275,0.0289,0.0289,0.0289,0.0289,0.0289,0.0289,0.0289,0.0613,0.0607,0.0696,0.0738,0.0712,0.0615,0.0437,0.0367,0.029,0.0233,0.0204,0.0236,0.0258,0.0219,0.0219,0.0218,0.0218,0.0218,0.0218,0.061,0.0669,0.0763,0.081,0.0827,0.072,0.051,0.0349,0.0257,0.0212,0.0252,0.0227,0.023,0.0251,0.0214,0.0215,0.0215,0.0216,0.0216,0.0628,0.0693,0.079,0.0855,0.0804,0.067,0.051,0.0244,0.0081,0.0016,0.0154,0.0159,0.0143,0.0147,0.0166,0.0102,0.0102,0.0102,0,0.0629,0.0665,0.0785,0.0821,0.0685,0.0592,0.0287,0.0092,0.0057,0.0132,0.0048,0.0213,0.0215,0.0204,0.0207,0.0231,0,0,0,0.0635,0.0667,0.0722,0.0774,0.0648,0.0339,0.0165,0.0119,0.0145,-0.0038,0.0095,0.0096,0.0032,0.0204,0.0189,0.0192,0.0225,0,0]}]]